Regional Weather Roundup
Issued by NWS

Home | Current Version | Previous Version | Graphics & Text | Print | Product List | Glossary Off
Versions: 1 2 3 4 5 6 7 8 9 10 11 12 13 14 15 16 17 18 19 20 21 22 23 24 25 26 27 28 29 30 31 32 33 34 35 36 37 38 39 40 41 42 43 44 45 46 47 48 49 50

000
ASUS43 KMKX 182200
RWRWI

WISCONSIN REGIONAL WEATHER ROUNDUP
NATIONAL WEATHER SERVICE MILWAUKEE/SULLIVAN WI
400 PM CST THU DEC 18 2014

NOTE: "FAIR" INDICATES FEW OR NO CLOUDS BELOW 12,000 FEET WITH NO
SIGNIFICANT WEATHER AND/OR OBSTRUCTIONS TO VISIBILITY.

WIZ001-002-006>008-014>016-023>028-182300-
NORTHWEST WISCONSIN

CITY           SKY/WX    TMP DP  RH WIND       PRES   REMARKS
SUPERIOR ARPT  CLOUDY    27  19  71 CALM      30.27S
ASHLAND        CLOUDY    24  18  77 SW3       30.28R
HAYWARD        CLOUDY    23  18  81 S3        30.24S
SIREN          CLOUDY    23  19  85 CALM      30.26S
CUMBERLAND     CLOUDY    23  19  86 S5        30.23S WCI  17
RICE LAKE      CLOUDY    23  20  87 S3        30.26S
CHETEK         CLOUDY    23  20  89 CALM      30.25S
LADYSMITH      CLOUDY    24  20  85 CALM      30.26R
EAU CLAIRE     NOT AVBL
MENOMONIE      CLOUDY    24  19  79 CALM      30.26S
NEW RICHMOND   CLOUDY    23  19  87 CALM      30.26S
OSCEOLA        CLOUDY    23  19  83 S6        30.29S WCI  16
$$

WIZ003>005-009-010-017-018-182300-
NORTH CENTRAL WISCONSIN

CITY           SKY/WX    TMP DP  RH WIND       PRES   REMARKS
MANITOWISH WTR CLEAR     24  16  71 CALM      30.20S
ARBOR VITAE    CLEAR     25  17  71 CALM      30.20S
WOODRUFF       CLEAR     25  17  71 CALM      30.20S
RHINELANDER    CLEAR     23  14  68 W3        30.20R
EAGLE RIVER    CLEAR     25  15  66 CALM      30.20R
LAND O LAKES   CLEAR     22  17  82 CALM      30.21R
PHILLIPS       CLOUDY    21  16  81 CALM      30.22R
TOMAHAWK       PTCLDY    22  17  80 CALM      30.22R
MEDFORD        CLOUDY    22  18  83 CALM      30.21S
MERRILL        CLEAR     23  18  83 W3        30.22S
$$

WIZ029-030-035-036-043>047-182300-
CENTRAL WISCONSIN

CITY           SKY/WX    TMP DP  RH WIND       PRES   REMARKS
WAUSAU         MOCLDY    24  17  74 W3        30.21S
MOSINEE        CLOUDY    25  21  86 N3        30.23S
MARSHFIELD     CLOUDY    25  19  78 CALM      30.22S
STEVENS POINT  CLOUDY    24  18  77 CALM      30.23S
WAUPACA        CLOUDY    29  20  68 NW5       30.24S WCI  24
WAUTOMA        NOT AVBL
WISC RAPIDS    CLOUDY    25  19  78 NW5       30.24S WCI  19
CAMP DOUGLAS   CLOUDY    25  23  93 VRB2      30.24S
$$

WIZ011>013-019>022-031-037>040-048>050-182300-
NORTHEAST WISCONSIN

CITY           SKY/WX    TMP DP  RH WIND       PRES   REMARKS
ANTIGO         CLEAR     26  17  69 CALM      30.20R
SHAWANO        CLEAR     31  19  61 CALM      30.23S
OCONTO         CLEAR     29  19  65 CALM      30.23S
STURGEON BAY   CLEAR     27  16  63 NE7       30.25S WCI  19
GREEN BAY      CLEAR     27  20  75 S3        30.24S
MANITOWOC      NOT AVBL
APPLETON       MOCLDY    27  18  69 N6        30.23S WCI  20
CLINTONVILLE   PTCLDY    30  18  59 W3        30.23S
OSHKOSH        CLOUDY    27  19  72 NW5       30.23S WCI  22
$$

WIZ032>034-041-042-053>061-182300-
SOUTHWEST WISCONSIN

CITY           SKY/WX    TMP DP  RH WIND       PRES   REMARKS
LA CROSSE      CLOUDY    26  18  71 W3        30.27R
SPARTA         CLOUDY    25  19  78 CALM      30.27R
VIROQUA        CLOUDY    24  20  86 CALM      30.22R
BOSCOBEL       CLOUDY    27  17  66 S3        30.27R
PRAIRIE DU CHI CLOUDY    28  17  63 CALM      30.26R
PLATTEVILLE    CLOUDY    26  19  76 CALM      30.24S
$$

WIZ056-057-062-063-064-067-068-182300-
SOUTH CENTRAL WISCONSIN

CITY           SKY/WX    TMP DP  RH WIND       PRES   REMARKS
REEDSBURG      CLOUDY    25  19  80 CALM      30.24R
BARABOO/DELLS  CLOUDY    26  20  79 CALM      30.23R
LONE ROCK      NOT AVBL
MINERAL POINT  CLOUDY    28  19  69 CALM      30.22S
MADISON        CLOUDY    27  21  78 NW5       30.23R WCI  22
MIDDLETON      CLOUDY    28  22  77 NW5       30.23S WCI  23
WATERTOWN      CLOUDY    27  25  92 N8        30.22S WCI  18
MONROE         CLOUDY    27  21  80 CALM      30.22S
JANESVILLE     CLOUDY    28  21  74 CALM      30.23R
$$

WIZ051-052-058>065-066-070>072-182300-
SOUTHEAST WISCONSIN

CITY           SKY/WX    TMP DP  RH WIND       PRES   REMARKS
MILWAUKEE      CLOUDY    29  23  78 NW7       30.23R WCI  22
WAUKESHA       CLOUDY    27  25  93 NW6       30.23R WCI  20
MILWAUKEE/TIMM NOT AVBL
RACINE         CLOUDY    28  24  85 NW7       30.24S FOG     WCI  21
BURLINGTON     CLOUDY    25  23  90 NW7       30.23R WCI  17
KENOSHA        CLOUDY    27  23  85 N8        30.23R WCI  19
FOND DU LAC    CLOUDY    27  19  72 N8        30.23S WCI  19
SHEBOYGAN      CLOUDY    28  21  75 N7        30.23R WCI  21
WEST BEND      CLOUDY    28  21  74 N6        30.22R WCI  22
JUNEAU         CLOUDY    26  22  84 N6        30.23S WCI  20
$$

LSZ147-162-182300-
LAKE SUPERIOR

STATION/POSITION TIME  TEMP    WIND        PRES    WAVE
                       AIR SEA DIR/SP/G            HT/PER
                 (UTC) (F)     (DEG/KT/KT) (MB)    (FT/S)
DEVILS ISLAND    2100   29     110/  7/  8 1026.1S
PORT WING        2100   27      70/  5/  7 1025.1R
SAXON HARBOR     2100   28      30/  3/  5 1024.7
$$

LMZ867-665-643>646-182300-
LAKE MICHIGAN

STATION/POSITION TIME  TEMP    WIND        PRES    WAVE
                       AIR SEA DIR/SP/G            HT/PER
                 (UTC) (F)     (DEG/KT/KT) (MB)    (FT/S)
CHAMBERS ISLAND  2100   29      10/  9/ 11 1024.0S
NORTHPORT PIER   2100   28     350/  9/ 12 1024.0S
SISTER BAY       2143           40/  4/  8   N/A
ALGOMA LAKESHORE 2114          360/  8/  9   N/A
KEWAUNEE LAKESHO 2100   28      10/  4/  8 1022.9R
SHEBOYGAN LAKESH 2100   28 34  330/ 10/ 11 1024.6R
PORT WASHINGTON  2100   29     320/  6/ 10 1024.4R
MILWAUKEE LAKESH 2100   29     310/  7/ 10   N/A
KENOSHA   LAKESH 2100   28     320/  9/ 11 1023.4S
$$

TC  - TEMPERATURE IN CELSIUS
VSB - VISIBILITY IN STATUTE MILES
WCI - WIND CHILL INDEX
HX  - HEAT INDEX



USA.gov is the U.S. government's official web portal to all federal, state and local government web resources and services.